FW8473 Weather Reports


Display with metric or nautical units.
time (UTC)temp
F
wind
direction
speed
MPH
gust
MPH
rain 1hr
in
rain 24hr
in
rain mn
in
humidity
%
barometer
mb
20260510225033 81 13 7.0 22.0 0.00 0.00 0.00 22 1020.2
20260510224556 81 13 8.0 22.0 0.00 0.00 0.00 22 1020.4
20260510224031 81 13 11.0 22.0 0.00 0.00 0.00 22 1020.4
20260510223530 81 13 8.0 20.0 0.00 0.00 0.00 22 1020.4
20260510223038 82 13 12.0 20.0 0.00 0.00 0.00 21 1020.1
20260510222529 83 8 9.0 21.0 0.00 0.00 0.00 20 1019.9
20260510222029 84 8 13.0 21.0 0.00 0.00 0.00 18 1019.8
20260510221537 87 8 5.0 16.0 0.00 0.00 0.00 16 1019.7
20260510221029 87 8 5.0 16.0 0.00 0.00 0.00 16 1019.7
20260510220528 88 8 7.0 12.0 0.00 0.00 0.00 14 1020.0
20260510220037 89 8 4.0 10.0 0.00 0.00 0.00 15 1019.8
20260510215528 89 8 1.0 5.0 0.00 0.00 0.00 9 1020.0
20260510215027 89 0 2.0 6.0 0.00 0.00 0.00 9 1020.3
20260510214545 88 8 0.0 13.0 0.00 0.00 0.00 8 1020.2
20260510214030 88 8 3.0 13.0 0.00 0.00 0.00 10 1020.4
20260510213527 87 8 1.0 10.0 0.00 0.00 0.00 8 1020.4
20260510213050 87 8 1.0 12.0 0.00 0.00 0.00 7 1020.6
20260510212527 87 0 5.0 13.0 0.00 0.00 0.00 6 1020.6
20260510212030 88 8 7.0 17.0 0.00 0.00 0.00 8 1020.5
20260510211602 88 8 10.0 17.0 0.00 0.00 0.00 8 1020.4
20260510211027 90 327 4.0 10.0 0.00 0.00 0.00 7 1020.5
20260510210530 90 339 4.0 10.0 0.00 0.00 0.00 7 1020.5
20260510210036 89 337 1.0 8.0 0.00 0.00 0.00 8 1020.4
20260510205527 88 337 2.0 8.0 0.00 0.00 0.00 6 1020.4
20260510205032 86 327 3.0 8.0 0.00 0.00 0.00 7 1020.4
20260510204536 87 337 0.0 8.0 0.00 0.00 0.00 7 1020.5
20260510204026 88 337 2.0 6.0 0.00 0.00 0.00 6 1020.7
20260510203527 87 335 3.0 8.0 0.00 0.00 0.00 6 1020.8
20260510203042 86 335 4.0 9.0 0.00 0.00 0.00 6 1020.9
20260510202527 85 325 2.0 10.0 0.00 0.00 0.00 7 1021.0
20260510202030 85 325 5.0 10.0 0.00 0.00 0.00 7 1021.1
20260510201544 85 326 1.0 10.0 0.00 0.00 0.00 7 1021.1
20260510201030 84 344 2.0 10.0 0.00 0.00 0.00 6 1021.1
20260510200527 85 344 4.0 10.0 0.00 0.00 0.00 7 1021.2
20260510200040 86 323 1.0 10.0 0.00 0.00 0.00 8 1021.1
20260510195526 85 323 3.0 10.0 0.00 0.00 0.00 7 1021.2
20260510195028 84 322 2.0 6.0 0.00 0.00 0.00 10 1021.1
20260510194543 84 322 0.0 4.0 0.00 0.00 0.00 10 1021.1
20260510194030 85 0 0.0 4.0 0.00 0.00 0.00 10 1021.2
20260510193526 85 0 0.0 4.0 0.00 0.00 0.00 12 1021.2
20260510193035 85 0 1.0 11.0 0.00 0.00 0.00 11 1021.2
20260510192530 85 0 2.0 11.0 0.00 0.00 0.00 10 1021.2
20260510192030 85 322 1.0 6.0 0.00 0.00 0.00 10 1021.2
20260510191555 86 0 0.0 3.0 0.00 0.00 0.00 9 1021.3
20260510191030 84 0 0.0 10.0 0.00 0.00 0.00 10 1021.4
20260510190529 83 322 1.0 14.0 0.00 0.00 0.00 8 1021.5
20260510190042 83 322 4.0 14.0 0.00 0.00 0.00 8 1021.5
20260510185530 84 323 6.0 12.0 0.00 0.00 0.00 9 1021.5
20260510185028 85 340 0.0 8.0 0.00 0.00 0.00 13 1021.4
20260510184538 84 340 4.0 10.0 0.00 0.00 0.00 12 1021.5
20260510184029 85 340 3.0 10.0 0.00 0.00 0.00 12 1021.5
20260510183530 85 339 3.0 10.0 0.00 0.00 0.00 11 1021.5
20260510183036 86 340 2.0 10.0 0.00 0.00 0.00 12 1021.6
20260510182529 86 0 1.0 5.0 0.00 0.00 0.00 11 1021.5
20260510182029 85 340 1.0 12.0 0.00 0.00 0.00 11 1021.6
20260510181536 83 339 2.0 12.0 0.00 0.00 0.00 13 1021.6
20260510181030 83 339 3.0 11.0 0.00 0.00 0.00 11 1021.7
20260510180532 83 335 2.0 10.0 0.00 0.00 0.00 12 1021.8
20260510180050 83 339 1.0 6.0 0.00 0.00 0.00 11 1021.8
20260510175529 83 339 2.0 6.0 0.00 0.00 0.00 12 1021.8
20260510175032 82 0 2.0 10.0 0.00 0.00 0.00 12 1021.9
20260510174535 81 0 2.0 11.0 0.00 0.00 0.00 12 1021.9
20260510174028 81 339 5.0 11.0 0.00 0.00 0.00 13 1021.9
20260510173532 82 324 3.0 11.0 0.00 0.00 0.00 14 1021.9
20260510173041 81 325 3.0 8.0 0.00 0.00 0.00 13 1021.9
20260510172528 81 0 1.0 8.0 0.00 0.00 0.00 16 1021.9
20260510172032 80 0 0.0 8.0 0.00 0.00 0.00 15 1021.9
20260510171537 80 325 3.0 9.0 0.00 0.00 0.00 16 1021.9
20260510171030 80 326 3.0 9.0 0.00 0.00 0.00 16 1021.9
20260510170533 80 326 0.0 6.0 0.00 0.00 0.00 18 1021.7
20260510170035 80 0 2.0 6.0 0.00 0.00 0.00 17 1021.8
20260510165532 80 327 0.0 3.0 0.00 0.00 0.00 18 1021.7
20260510165029 81 0 0.0 8.0 0.00 0.00 0.00 17 1021.7
20260510164544 80 0 0.0 8.0 0.00 0.00 0.00 17 1021.7
20260510164028 80 327 2.0 8.0 0.00 0.00 0.00 18 1021.7
20260510163527 79 0 0.0 6.0 0.00 0.00 0.00 19 1021.8
20260510163043 78 0 0.0 12.0 0.00 0.00 0.00 19 1021.8
20260510162529 78 327 3.0 12.0 0.00 0.00 0.00 20 1021.7
20260510162028 78 327 2.0 9.0 0.00 0.00 0.00 20 1021.6
20260510161541 77 0 0.0 5.0 0.00 0.00 0.00 22 1021.7
20260510161029 77 0 0.0 6.0 0.00 0.00 0.00 21 1021.7
20260510160528 77 333 1.0 6.0 0.00 0.00 0.00 21 1021.7
20260510160046 77 0 0.0 2.0 0.00 0.00 0.00 24 1021.7
20260510155529 76 0 0.0 2.0 0.00 0.00 0.00 23 1021.7
20260510155028 76 0 0.0 2.0 0.00 0.00 0.00 25 1021.8
20260510154550 76 0 0.0 4.0 0.00 0.00 0.00 25 1021.8
20260510154030 76 0 0.0 4.0 0.00 0.00 0.00 25 1021.8
20260510153528 75 336 0.0 3.0 0.00 0.00 0.00 25 1021.7
20260510153035 75 0 0.0 3.0 0.00 0.00 0.00 25 1021.7
20260510152533 75 336 0.0 3.0 0.00 0.00 0.00 25 1021.6
20260510152031 75 0 0.0 3.0 0.00 0.00 0.00 27 1021.6
20260510151536 74 0 0.0 1.0 0.00 0.00 0.00 26 1021.5
20260510151030 74 0 0.0 2.0 0.00 0.00 0.00 26 1021.6
20260510150530 74 0 0.0 2.0 0.00 0.00 0.00 26 1021.5
20260510150045 74 0 0.0 2.0 0.00 0.00 0.00 28 1021.4
20260510145528 73 0 0.0 2.0 0.00 0.00 0.00 26 1021.4
20260510145028 72 335 0.0 2.0 0.00 0.00 0.00 26 1021.5
20260510144607 72 0 0.0 0.0 0.00 0.00 0.00 26 1021.5
20260510144030 71 0 0.0 1.0 0.00 0.00 0.00 26 1021.4
20260510143528 71 0 0.0 1.0 0.00 0.00 0.00 27 1021.3
20260510143041 70 0 0.0 0.0 0.00 0.00 0.00 30 1021.2
20260510142531 69 0 0.0 1.0 0.00 0.00 0.00 30 1021.3
20260510142029 68 0 0.0 1.0 0.00 0.00 0.00 31 1021.4
20260510141537 67 0 0.0 4.0 0.00 0.00 0.00 34 1021.3
20260510141028 67 0 0.0 4.0 0.00 0.00 0.00 37 1021.3
20260510140530 65 334 0.0 1.0 0.00 0.00 0.00 39 1021.2
20260510140038 64 0 0.0 1.0 0.00 0.00 0.00 41 1021.2
20260510135528 63 0 0.0 0.0 0.00 0.00 0.00 37 1021.0
20260510135030 62 0 0.0 0.0 0.00 0.00 0.00 38 1021.1
20260510134550 62 0 0.0 2.0 0.00 0.00 0.00 39 1021.2
20260510134027 61 0 0.0 2.0 0.00 0.00 0.00 42 1021.0
20260510133532 61 332 0.0 2.0 0.00 0.00 0.00 42 1021.1
20260510133037 61 0 0.0 0.0 0.00 0.00 0.00 40 1021.0
20260510132528 62 0 0.0 0.0 0.00 0.00 0.00 37 1020.8
20260510132028 62 0 0.0 0.0 0.00 0.00 0.00 37 1020.7
20260510131539 62 0 0.0 3.0 0.00 0.00 0.00 38 1020.6
20260510131028 63 0 0.0 3.0 0.00 0.00 0.00 35 1020.5
20260510130529 63 328 0.0 3.0 0.00 0.00 0.00 34 1020.4
20260510130037 63 0 0.0 1.0 0.00 0.00 0.00 33 1020.2
20260510125528 64 0 0.0 1.0 0.00 0.00 0.00 32 1020.2
20260510125028 64 0 0.0 1.0 0.00 0.00 0.00 30 1020.0
20260510124552 65 0 0.0 2.0 0.00 0.00 0.00 29 1020.0
20260510124028 65 0 0.0 2.0 0.00 0.00 0.00 29 1019.9
20260510123528 66 332 0.0 1.0 0.00 0.00 0.00 28 1019.9
20260510123042 66 0 0.0 1.0 0.00 0.00 0.00 28 1019.9
20260510122529 67 0 0.0 1.0 0.00 0.00 0.00 27 1019.9
20260510122028 68 0 0.0 2.0 0.00 0.00 0.00 27 1019.7
20260510121536 69 0 0.0 2.0 0.00 0.00 0.00 26 1019.7
20260510121028 69 0 0.0 2.0 0.00 0.00 0.00 25 1019.5
20260510120527 69 335 0.0 3.0 0.00 0.00 0.00 24 1019.5
20260510120036 69 0 0.0 4.0 0.00 0.00 0.00 24 1019.4
20260510115527 69 334 1.0 5.0 0.00 0.00 0.00 24 1019.3
20260510115031 69 334 2.0 5.0 0.00 0.00 0.00 25 1019.2
20260510114536 69 0 1.0 3.0 0.00 0.00 0.00 25 1019.3
20260510114030 69 334 0.0 4.0 0.00 0.00 0.00 25 1019.4
20260510113528 69 335 0.0 6.0 0.00 0.00 0.00 25 1019.4
20260510113035 69 334 1.0 6.0 0.00 0.00 0.00 25 1019.4
20260510112531 69 334 2.0 5.0 0.00 0.00 0.00 25 1019.4
20260510112028 70 334 2.0 5.0 0.00 0.00 0.00 24 1019.4
20260510111536 70 334 2.0 5.0 0.00 0.00 0.00 24 1019.6
20260510111028 70 334 0.0 3.0 0.00 0.00 0.00 25 1019.6
20260510110533 71 327 0.0 3.0 0.00 0.00 0.00 23 1019.9
20260510110041 71 327 0.0 3.0 0.00 0.00 0.00 23 1020.0
20260510105528 71 0 0.0 6.0 0.00 0.00 0.00 22 1020.0
20260510105028 71 0 1.0 9.0 0.00 0.00 0.00 21 1019.9
20260510104536 71 335 1.0 10.0 0.00 0.00 0.00 22 1020.0
20260510104030 70 335 6.0 10.0 0.00 0.00 0.00 22 1019.9
20260510103531 70 0 1.0 2.0 0.00 0.00 0.00 22 1020.4
20260510103036 71 323 0.0 3.0 0.00 0.00 0.00 20 1020.2
20260510102529 71 0 0.0 6.0 0.00 0.00 0.00 20 1019.9
20260510102028 71 323 1.0 10.0 0.00 0.00 0.00 20 1020.1
20260510101537 71 323 4.0 10.0 0.00 0.00 0.00 20 1020.0
20260510101028 71 323 5.0 10.0 0.00 0.00 0.00 20 1019.8
20260510100531 71 324 4.0 9.0 0.00 0.00 0.00 19 1019.7
20260510100038 72 324 4.0 15.0 0.00 0.00 0.00 19 1019.5
20260510095528 72 324 4.0 15.0 0.00 0.00 0.00 18 1019.5
20260510095029 72 328 8.0 15.0 0.00 0.00 0.00 18 1019.4
20260510094547 73 328 7.0 13.0 0.00 0.00 0.00 18 1019.1
20260510094028 73 325 7.0 13.0 0.00 0.00 0.00 18 1019.1
20260510093529 73 333 7.0 21.0 0.00 0.00 0.00 18 1018.9
20260510093053 73 327 8.0 25.0 0.00 0.00 0.00 18 1018.9
20260510092529 72 328 12.0 25.0 0.00 0.00 0.00 19 1018.8
20260510092028 71 319 8.0 17.0 0.00 0.00 0.00 19 1018.7
20260510091543 71 319 9.0 19.0 0.00 0.00 0.00 19 1018.7
20260510091028 71 314 12.0 20.0 0.00 0.00 0.00 19 1018.6
20260510090528 70 314 11.0 20.0 0.00 0.00 0.00 19 1018.6
20260510090043 71 314 6.0 14.0 0.00 0.00 0.00 18 1018.5
20260510085528 71 314 3.0 14.0 0.00 0.00 0.00 18 1018.4
20260510085028 71 314 7.0 15.0 0.00 0.00 0.00 18 1018.6
20260510084543 71 314 10.0 18.0 0.00 0.00 0.00 18 1018.4
20260510084029 71 314 9.0 18.0 0.00 0.00 0.00 19 1018.3
20260510083528 70 318 10.0 17.0 0.00 0.00 0.00 19 1018.2
20260510083036 70 319 8.0 16.0 0.00 0.00 0.00 19 1018.1
20260510082527 70 319 9.0 16.0 0.00 0.00 0.00 18 1018.1
20260510082032 70 321 8.0 17.0 0.00 0.00 0.00 19 1017.9
20260510081534 71 321 8.0 17.0 0.00 0.00 0.00 18 1017.8
20260510081029 71 321 9.0 15.0 0.00 0.00 0.00 18 1017.8
20260510080530 71 322 9.0 15.0 0.00 0.00 0.00 18 1017.6
20260510080044 71 323 8.0 18.0 0.00 0.00 0.00 19 1017.5
20260510075530 70 323 9.0 18.0 0.00 0.00 0.00 19 1017.6
20260510075029 70 324 7.0 14.0 0.00 0.00 0.00 19 1017.7
20260510074545 69 325 6.0 14.0 0.00 0.00 0.00 20 1017.9
20260510074032 68 327 3.0 10.0 0.00 0.00 0.00 21 1017.8
20260510073529 68 327 4.0 10.0 0.00 0.00 0.00 20 1017.8
20260510073046 66 326 6.0 10.0 0.00 0.00 0.00 22 1017.9
20260510072529 65 327 3.0 9.0 0.00 0.00 0.00 22 1017.7
20260510072029 64 327 0.0 4.0 0.00 0.00 0.00 23 1017.6
20260510071549 65 0 0.0 3.0 0.00 0.00 0.00 24 1017.7
20260510071029 65 0 0.0 3.0 0.00 0.00 0.00 24 1017.6
20260510070529 66 0 0.0 1.0 0.00 0.00 0.00 24 1017.6
20260510070038 66 0 0.0 1.0 0.00 0.00 0.00 22 1017.4
20260510065529 67 0 0.0 2.0 0.00 0.00 0.00 21 1017.4
20260510065029 67 0 0.0 4.0 0.00 0.00 0.00 21 1017.4
20260510064535 67 0 0.0 4.0 0.00 0.00 0.00 21 1017.4
20260510064028 67 327 2.0 4.0 0.00 0.00 0.00 21 1017.2
20260510063528 67 327 2.0 4.0 0.00 0.00 0.00 20 1017.2
20260510063037 67 327 0.0 3.0 0.00 0.00 0.00 19 1017.1
20260510062529 67 0 0.0 3.0 0.00 0.00 0.00 19 1017.0
20260510062031 68 327 1.0 3.0 0.00 0.00 0.00 19 1016.8
20260510061540 68 0 0.0 3.0 0.00 0.00 0.00 18 1016.7
20260510061029 68 0 0.0 3.0 0.00 0.00 0.00 17 1016.6
20260510060529 68 0 0.0 5.0 0.00 0.00 0.00 17 1016.4
20260510060038 68 327 0.0 5.0 0.00 0.00 0.00 16 1016.4
20260510055528 68 327 1.0 5.0 0.00 0.00 0.00 16 1016.4
20260510055029 68 327 0.0 5.0 0.00 0.00 0.00 16 1016.5
20260510054533 68 327 2.0 6.0 0.00 0.00 0.00 16 1016.3
20260510054028 68 327 2.0 6.0 0.00 0.00 0.00 16 1016.3
20260510053529 68 327 2.0 8.0 0.00 0.00 0.00 16 1016.3
20260510053057 68 327 2.0 8.0 0.00 0.00 0.00 16 1016.2
20260510052527 68 327 1.0 5.0 0.00 0.00 0.00 16 1016.3
20260510052029 68 327 0.0 5.0 0.00 0.00 0.00 16 1016.2
20260510051548 68 327 2.0 5.0 0.00 0.00 0.00 16 1016.1
20260510051029 69 0 0.0 3.0 0.00 0.00 0.00 16 1016.3
20260510050529 69 0 0.0 5.0 0.00 0.00 0.00 16 1016.1
20260510050037 69 0 0.0 5.0 0.00 0.00 0.00 16 1015.9
20260510045531 69 327 1.0 5.0 0.00 0.00 0.00 15 1016.0
20260510045029 69 327 1.0 4.0 0.00 0.00 0.00 15 1015.9
20260510044534 69 0 0.0 2.0 0.00 0.00 0.00 16 1016.0
20260510044028 69 0 0.0 2.0 0.00 0.00 0.00 16 1015.9
20260510043529 69 327 0.0 6.0 0.00 0.00 0.00 16 1015.8
20260510043042 69 327 0.0 6.0 0.00 0.00 0.00 16 1015.9
20260510042528 69 327 2.0 6.0 0.00 0.00 0.00 16 1015.8
20260510042027 69 327 1.0 5.0 0.00 0.00 0.00 17 1015.8
20260510041535 68 0 0.0 5.0 0.00 0.00 0.00 20 1015.8
20260510041028 68 327 2.0 5.0 0.00 0.00 0.00 20 1015.7
20260510040528 69 327 0.0 2.0 0.00 0.00 0.00 23 1015.6
20260510040043 69 0 0.0 1.0 0.00 0.00 0.00 22 1015.4
20260510035528 70 0 0.0 1.0 0.00 0.00 0.00 21 1015.3
20260510035028 71 0 0.0 1.0 0.00 0.00 0.00 17 1015.1
20260510034540 71 0 0.0 1.0 0.00 0.00 0.00 20 1015.2
20260510034027 72 0 0.0 2.0 0.00 0.00 0.00 19 1015.1
20260510033532 73 0 0.0 2.0 0.00 0.00 0.00 17 1015.0
20260510033035 74 0 0.0 1.0 0.00 0.00 0.00 17 1015.0
20260510032527 75 0 0.0 1.0 0.00 0.00 0.00 16 1014.9
20260510032029 75 0 0.0 2.0 0.00 0.00 0.00 16 1014.7
20260510031540 76 0 0.0 2.0 0.00 0.00 0.00 15 1014.7
20260510031028 76 0 0.0 4.0 0.00 0.00 0.00 14 1014.7
20260510030528 77 327 1.0 4.0 0.00 0.00 0.00 13 1014.6
20260510030036 78 327 0.0 2.0 0.00 0.00 0.00 14 1014.7
20260510025528 79 327 0.0 3.0 0.00 0.00 0.00 12 1014.5
20260510025028 79 0 0.0 4.0 0.00 0.00 0.00 10 1014.4
20260510024541 80 0 0.0 6.0 0.00 0.00 0.00 11 1014.4
20260510024028 80 327 2.0 6.0 0.00 0.00 0.00 10 1014.3
20260510023530 80 327 3.0 6.0 0.00 0.00 0.00 10 1014.2
20260510023036 81 327 2.0 9.0 0.00 0.00 0.00 10 1014.3
20260510022529 81 327 3.0 13.0 0.00 0.00 0.00 10 1014.1
20260510022029 81 327 4.0 13.0 0.00 0.00 0.00 9 1014.1
20260510021542 81 327 6.0 12.0 0.00 0.00 0.00 9 1013.9
20260510021029 82 327 4.0 10.0 0.00 0.00 0.00 9 1013.7
20260510020531 82 327 4.0 10.0 0.00 0.00 0.00 9 1013.8
20260510020042 82 327 3.0 6.0 0.00 0.00 0.00 10 1013.7
20260510015530 82 327 2.0 6.0 0.00 0.00 0.00 10 1013.7
20260510015028 83 327 3.0 6.0 0.00 0.00 0.00 10 1013.8
20260510014544 83 327 1.0 5.0 0.00 0.00 0.00 9 1013.7
20260510014028 83 327 0.0 3.0 0.00 0.00 0.00 9 1013.7
20260510013528 83 0 0.0 9.0 0.00 0.00 0.00 9 1013.7
20260510013046 84 0 1.0 9.0 0.00 0.00 0.00 9 1013.6
20260510012529 84 327 4.0 11.0 0.00 0.00 0.00 9 1013.4
20260510012028 85 327 5.0 11.0 0.00 0.00 0.00 9 1013.5
20260510011542 85 327 1.0 9.0 0.00 0.00 0.00 8 1013.3
20260510011027 85 327 5.0 12.0 0.00 0.00 0.00 8 1013.3
20260510010528 86 327 4.0 14.0 0.00 0.00 0.00 8 1013.2
20260510010036 85 327 9.0 14.0 0.00 0.00 0.00 8 1013.3
20260510005528 85 327 9.0 18.0 0.00 0.00 0.00 8 1013.3
20260510005028 85 327 10.0 23.0 0.00 0.00 0.00 8 1013.3
20260510004544 86 327 13.0 23.0 0.00 0.00 0.00 8 1013.4
20260510004032 86 327 12.0 23.0 0.00 0.00 0.00 8 1013.3
20260510003528 86 327 12.0 23.0 0.00 0.00 0.00 8 1013.4
20260510003035 87 329 10.0 20.0 0.00 0.00 0.00 7 1013.3
20260510002531 88 329 10.0 21.0 0.00 0.00 0.00 8 1013.2
20260510002028 88 329 12.0 21.0 0.00 0.00 0.00 8 1013.2
20260510001542 88 330 12.0 20.0 0.00 0.00 0.00 7 1013.1
20260510001029 89 331 10.0 18.0 0.00 0.00 0.00 7 1013.1
20260510000528 88 331 10.0 18.0 0.00 0.00 0.00 8 1013.1
20260510000046 89 332 10.0 18.0 0.00 0.00 0.00 7 1013.2
20260509235528 89 336 8.0 15.0 0.00 0.00 0.00 7 1013.1
20260509235028 89 339 4.0 9.0 0.00 0.00 0.00 7 1013.1
20260509234536 89 335 4.0 9.0 0.00 0.00 0.00 8 1013.1
20260509234032 89 333 6.0 9.0 0.00 0.00 0.00 7 1013.1
20260509233527 88 333 3.0 13.0 0.00 0.00 0.00 8 1013.3
20260509233041 87 333 7.0 13.0 0.00 0.00 0.00 8 1013.3
20260509232528 87 333 5.0 12.0 0.00 0.00 0.00 8 1013.3
20260509232028 87 333 8.0 12.0 0.00 0.00 0.00 8 1013.2
20260509231539 87 333 5.0 11.0 0.00 0.00 0.00 8 1013.3
20260509231030 86 333 4.0 11.0 0.00 0.00 0.00 7 1013.4
20260509230528 87 333 5.0 11.0 0.00 0.00 0.00 8 1013.3
20260509230045 87 333 6.0 10.0 0.00 0.00 0.00 7 1013.4
20260509225528 87 333 3.0 10.0 0.00 0.00 0.00 8 1013.4